| time (UTC) | temp F | wind direction | speed MPH | gust MPH | rain 1hr in | rain 24hr in | rain mn in | humidity % | barometer mb |
| 20260902045704 | 65 | 221 | 2.0 | 2.0 | 0.00 | 0.09 | 0.00 | 87 | 996.5 |
| 20260902045204 | 65 | 221 | 2.0 | 2.0 | 0.00 | 0.09 | 0.00 | 88 | 996.4 |
| 20260902044704 | 65 | 218 | 2.0 | 2.0 | 0.00 | 0.09 | 0.00 | 89 | 996.4 |
| 20260902044204 | 64 | 223 | 2.0 | 2.0 | 0.00 | 0.09 | 0.00 | 89 | 996.4 |
| 20260902043703 | 64 | 221 | 2.0 | 3.0 | 0.00 | 0.09 | 0.00 | 90 | 996.5 |
| 20260902043203 | 64 | 223 | 2.0 | 2.0 | 0.00 | 0.09 | 0.00 | 90 | 996.5 |
| 20260902042704 | 64 | 223 | 2.0 | 3.0 | 0.00 | 0.09 | 0.00 | 90 | 996.5 |
| 20260902041704 | 64 | 222 | 2.0 | 3.0 | 0.00 | 0.09 | 0.00 | 90 | 996.5 |
| 20260902040704 | 65 | 220 | 2.0 | 2.0 | 0.00 | 0.09 | 0.00 | 91 | 996.5 |
| 20260902040204 | 65 | 221 | 2.0 | 3.0 | 0.00 | 0.09 | 0.00 | 90 | 996.5 |
| 20260902035205 | 65 | 222 | 2.0 | 3.0 | 0.00 | 0.09 | 0.07 | 89 | 996.3 |
| 20260902034704 | 65 | 219 | 3.0 | 3.0 | 0.00 | 0.09 | 0.07 | 88 | 996.2 |
| 20260902034204 | 65 | 222 | 3.0 | 3.0 | 0.00 | 0.09 | 0.07 | 88 | 996.1 |
| 20260902033704 | 65 | 221 | 2.0 | 3.0 | 0.00 | 0.09 | 0.07 | 88 | 996.1 |
| 20260902033203 | 65 | 222 | 1.0 | 3.0 | 0.00 | 0.09 | 0.07 | 89 | 996.0 |
| 20260902031707 | 65 | 221 | 2.0 | 2.0 | 0.00 | 0.09 | 0.07 | 88 | 995.8 |
| 20260902031204 | 65 | 219 | 2.0 | 3.0 | 0.00 | 0.09 | 0.07 | 88 | 995.8 |
| 20260902030204 | 65 | 219 | 2.0 | 2.0 | 0.00 | 0.09 | 0.07 | 88 | 995.8 |
| 20260902025704 | 65 | 219 | 2.0 | 3.0 | 0.00 | 0.09 | 0.07 | 87 | 995.7 |
| 20260902024704 | 65 | 219 | 2.0 | 3.0 | 0.00 | 0.09 | 0.07 | 87 | 995.8 |
| 20260902024204 | 65 | 219 | 2.0 | 3.0 | 0.00 | 0.09 | 0.07 | 87 | 995.7 |
| 20260902023704 | 65 | 216 | 2.0 | 3.0 | 0.00 | 0.09 | 0.07 | 88 | 995.7 |
| 20260902022703 | 65 | 220 | 2.0 | 3.0 | 0.00 | 0.09 | 0.07 | 89 | 996.0 |
| 20260902022204 | 65 | 220 | 2.0 | 6.0 | 0.00 | 0.09 | 0.07 | 89 | 995.9 |
| 20260902021704 | 65 | 218 | 5.0 | 14.0 | 0.00 | 0.09 | 0.07 | 89 | 995.9 |
| 20260902021207 | 65 | 221 | 2.0 | 3.0 | 0.00 | 0.09 | 0.07 | 89 | 995.9 |
| 20260902020704 | 65 | 220 | 2.0 | 3.0 | 0.00 | 0.09 | 0.07 | 89 | 995.8 |
| 20260902020204 | 65 | 220 | 2.0 | 2.0 | 0.00 | 0.09 | 0.07 | 89 | 995.9 |
| 20260902015703 | 65 | 220 | 2.0 | 3.0 | 0.00 | 0.09 | 0.07 | 89 | 995.9 |
| 20260902014704 | 65 | 221 | 3.0 | 3.0 | 0.00 | 0.09 | 0.07 | 90 | 995.8 |
| 20260902014203 | 65 | 220 | 3.0 | 13.0 | 0.00 | 0.09 | 0.07 | 90 | 995.7 |
| 20260902013703 | 65 | 220 | 3.0 | 24.0 | 0.00 | 0.09 | 0.07 | 90 | 995.7 |
| 20260902013204 | 65 | 222 | 2.0 | 16.0 | 0.00 | 0.09 | 0.07 | 90 | 995.6 |
| 20260902012704 | 65 | 219 | 2.0 | 5.0 | 0.00 | 0.09 | 0.07 | 90 | 995.6 |
| 20260902012204 | 65 | 174 | 2.0 | 10.0 | 0.00 | 0.09 | 0.07 | 90 | 995.5 |
| 20260902011703 | 65 | 204 | 2.0 | 2.0 | 0.00 | 0.09 | 0.07 | 91 | 995.5 |
| 20260902011203 | 65 | 227 | 2.0 | 3.0 | 0.00 | 0.09 | 0.07 | 90 | 995.6 |
| 20260902010703 | 65 | 221 | 2.0 | 2.0 | 0.00 | 0.09 | 0.07 | 90 | 995.5 |
| 20260902005704 | 65 | 219 | 2.0 | 2.0 | 0.00 | 0.09 | 0.07 | 90 | 995.4 |
| 20260902005204 | 65 | 304 | 2.0 | 2.0 | 0.00 | 0.09 | 0.07 | 90 | 995.4 |
| 20260902004704 | 65 | 216 | 2.0 | 2.0 | 0.00 | 0.09 | 0.07 | 90 | 995.5 |
| 20260902004204 | 65 | 203 | 1.0 | 2.0 | 0.00 | 0.09 | 0.07 | 89 | 995.6 |
| 20260902003204 | 65 | 222 | 2.0 | 2.0 | 0.00 | 0.09 | 0.07 | 89 | 995.5 |
| 20260902002703 | 65 | 228 | 2.0 | 7.0 | 0.00 | 0.09 | 0.07 | 90 | 995.5 |
| 20260902002204 | 65 | 234 | 2.0 | 2.0 | 0.00 | 0.09 | 0.07 | 90 | 995.6 |
| 20260902001704 | 65 | 236 | 2.0 | 2.0 | 0.00 | 0.09 | 0.07 | 90 | 995.5 |
| 20260902001204 | 65 | 214 | 2.0 | 3.0 | 0.00 | 0.09 | 0.07 | 90 | 995.5 |
| 20260902000704 | 65 | 222 | 2.0 | 3.0 | 0.00 | 0.09 | 0.07 | 90 | 995.5 |
| 20260901235704 | 65 | 238 | 2.0 | 6.0 | 0.00 | 0.09 | 0.07 | 89 | 995.4 |
| 20260901235205 | 65 | 217 | 2.0 | 3.0 | 0.00 | 0.09 | 0.07 | 89 | 995.3 |
| 20260901234705 | 66 | 60 | 2.0 | 3.0 | 0.00 | 0.09 | 0.07 | 89 | 995.4 |
| 20260901234204 | 66 | 179 | 2.0 | 3.0 | 0.00 | 0.09 | 0.07 | 89 | 995.3 |
| 20260901233703 | 66 | 83 | 2.0 | 2.0 | 0.00 | 0.09 | 0.07 | 87 | 995.2 |
| 20260901233203 | 66 | 216 | 2.0 | 3.0 | 0.00 | 0.09 | 0.07 | 86 | 995.2 |
| 20260901232204 | 66 | 217 | 2.0 | 3.0 | 0.00 | 0.09 | 0.07 | 85 | 995.0 |
| 20260901231726 | 66 | 212 | 2.0 | 3.0 | 0.00 | 0.09 | 0.07 | 86 | 995.0 |
| 20260901230704 | 67 | 212 | 1.0 | 3.0 | 0.00 | 0.09 | 0.07 | 86 | 994.9 |
| 20260901230204 | 67 | 211 | 3.0 | 3.0 | 0.00 | 0.09 | 0.07 | 85 | 995.0 |
| 20260901225705 | 67 | 195 | 2.0 | 3.0 | 0.00 | 0.09 | 0.07 | 84 | 994.9 |
| 20260901225204 | 67 | 198 | 2.0 | 3.0 | 0.00 | 0.09 | 0.07 | 85 | 994.9 |
| 20260901224704 | 67 | 230 | 2.0 | 3.0 | 0.00 | 0.09 | 0.07 | 85 | 994.8 |
| 20260901223703 | 67 | 213 | 2.0 | 3.0 | 0.00 | 0.09 | 0.07 | 85 | 994.8 |
| 20260901223204 | 67 | 215 | 2.0 | 3.0 | 0.00 | 0.09 | 0.07 | 85 | 994.8 |
| 20260901222705 | 67 | 223 | 2.0 | 3.0 | 0.00 | 0.09 | 0.07 | 84 | 994.9 |
| 20260901221204 | 67 | 217 | 3.0 | 5.0 | 0.00 | 0.09 | 0.07 | 84 | 994.8 |
| 20260901220204 | 67 | 175 | 2.0 | 3.0 | 0.00 | 0.09 | 0.07 | 84 | 994.9 |
| 20260901215704 | 67 | 218 | 2.0 | 3.0 | 0.00 | 0.09 | 0.07 | 84 | 995.0 |
| 20260901215204 | 67 | 206 | 3.0 | 3.0 | 0.00 | 0.09 | 0.07 | 84 | 995.0 |
| 20260901214703 | 67 | 216 | 1.0 | 3.0 | 0.00 | 0.09 | 0.07 | 84 | 995.0 |
| 20260901214204 | 67 | 211 | 2.0 | 3.0 | 0.00 | 0.09 | 0.07 | 84 | 995.0 |
| 20260901213704 | 67 | 211 | 3.0 | 3.0 | 0.00 | 0.09 | 0.07 | 84 | 995.0 |
| 20260901212704 | 67 | 225 | 2.0 | 3.0 | 0.00 | 0.09 | 0.07 | 84 | 994.8 |
| 20260901212204 | 67 | 42 | 2.0 | 3.0 | 0.00 | 0.09 | 0.07 | 84 | 994.7 |
| 20260901211704 | 67 | 171 | 2.0 | 5.0 | 0.00 | 0.09 | 0.07 | 85 | 994.6 |
| 20260901210704 | 68 | 222 | 2.0 | 3.0 | 0.00 | 0.09 | 0.07 | 85 | 994.6 |
| 20260901210203 | 68 | 223 | 1.0 | 2.0 | 0.00 | 0.09 | 0.07 | 84 | 994.6 |
| 20260901205703 | 68 | 221 | 2.0 | 2.0 | 0.00 | 0.09 | 0.07 | 84 | 994.6 |
| 20260901205203 | 68 | 203 | 2.0 | 3.0 | 0.00 | 0.09 | 0.07 | 84 | 994.5 |
| 20260901204705 | 68 | 217 | 2.0 | 3.0 | 0.00 | 0.09 | 0.07 | 84 | 994.5 |
| 20260901204204 | 68 | 210 | 1.0 | 2.0 | 0.00 | 0.09 | 0.07 | 83 | 994.5 |
| 20260901203704 | 68 | 231 | 2.0 | 2.0 | 0.00 | 0.09 | 0.07 | 83 | 994.5 |
| 20260901203204 | 68 | 213 | 2.0 | 2.0 | 0.00 | 0.09 | 0.07 | 84 | 994.5 |
| 20260901201704 | 68 | 217 | 2.0 | 2.0 | 0.00 | 0.09 | 0.07 | 86 | 994.6 |
| 20260901201204 | 68 | 220 | 1.0 | 2.0 | 0.00 | 0.09 | 0.07 | 85 | 994.5 |
| 20260901200704 | 68 | 63 | 2.0 | 2.0 | 0.00 | 0.09 | 0.07 | 86 | 994.5 |
| 20260901200204 | 68 | 52 | 2.0 | 2.0 | 0.00 | 0.09 | 0.07 | 86 | 994.4 |
| 20260901195703 | 69 | 222 | 2.0 | 3.0 | 0.00 | 0.09 | 0.07 | 85 | 994.4 |
| 20260901195203 | 69 | 209 | 2.0 | 7.0 | 0.00 | 0.09 | 0.07 | 84 | 994.4 |
| 20260901194703 | 70 | 195 | 1.0 | 3.0 | 0.00 | 0.09 | 0.07 | 84 | 994.5 |
| 20260901194203 | 70 | 223 | 2.0 | 3.0 | 0.00 | 0.09 | 0.07 | 83 | 994.4 |
| 20260901193204 | 70 | 220 | 1.0 | 2.0 | 0.00 | 0.09 | 0.07 | 83 | 994.4 |
| 20260901192704 | 70 | 216 | 2.0 | 3.0 | 0.00 | 0.09 | 0.07 | 82 | 994.4 |
| 20260901192204 | 71 | 222 | 2.0 | 3.0 | 0.00 | 0.09 | 0.07 | 83 | 994.5 |
| 20260901191703 | 71 | 224 | 2.0 | 3.0 | 0.00 | 0.09 | 0.07 | 82 | 994.5 |
| 20260901191203 | 71 | 226 | 2.0 | 2.0 | 0.00 | 0.09 | 0.07 | 82 | 994.5 |
| 20260901190204 | 71 | 208 | 1.0 | 3.0 | 0.00 | 0.09 | 0.07 | 80 | 994.5 |
| 20260901185203 | 71 | 222 | 1.0 | 2.0 | 0.00 | 0.09 | 0.07 | 81 | 994.5 |
| 20260901184204 | 72 | 220 | 2.0 | 3.0 | 0.00 | 0.09 | 0.07 | 81 | 994.6 |
| 20260901183703 | 72 | 225 | 2.0 | 3.0 | 0.00 | 0.09 | 0.07 | 78 | 994.6 |
| 20260901181703 | 75 | 219 | 3.0 | 2.0 | 0.00 | 0.09 | 0.07 | 76 | 994.5 |
| 20260901181204 | 74 | 218 | 3.0 | 3.0 | 0.00 | 0.09 | 0.07 | 72 | 994.5 |
| 20260901180705 | 71 | 160 | 2.0 | 3.0 | 0.00 | 0.09 | 0.07 | 80 | 994.6 |
| 20260901180204 | 72 | 122 | 2.0 | 3.0 | 0.00 | 0.09 | 0.07 | 81 | 994.7 |
| 20260901175704 | 72 | 201 | 2.0 | 3.0 | 0.00 | 0.09 | 0.07 | 81 | 994.6 |
| 20260901175204 | 72 | 146 | 2.0 | 3.0 | 0.00 | 0.09 | 0.07 | 79 | 994.6 |
| 20260901174704 | 70 | 139 | 2.0 | 3.0 | 0.00 | 0.09 | 0.07 | 81 | 994.7 |
| 20260901174204 | 69 | 70 | 2.0 | 2.0 | 0.00 | 0.09 | 0.07 | 84 | 994.7 |
| 20260901173703 | 68 | 161 | 2.0 | 3.0 | 0.00 | 0.09 | 0.07 | 86 | 994.7 |
| 20260901173204 | 68 | 188 | 2.0 | 5.0 | 0.00 | 0.09 | 0.07 | 89 | 994.7 |
| 20260901172703 | 68 | 66 | 2.0 | 3.0 | 0.00 | 0.09 | 0.07 | 87 | 994.7 |
| 20260901172204 | 67 | 76 | 2.0 | 3.0 | 0.00 | 0.09 | 0.07 | 88 | 994.7 |
| 20260901171703 | 67 | 221 | 2.0 | 3.0 | 0.00 | 0.09 | 0.07 | 91 | 994.7 |
| 20260901171204 | 67 | 143 | 2.0 | 3.0 | 0.00 | 0.09 | 0.07 | 91 | 994.7 |
| 20260901170704 | 67 | 148 | 2.0 | 3.0 | 0.00 | 0.09 | 0.07 | 91 | 994.8 |
| 20260901170204 | 67 | 94 | 1.0 | 1.0 | 0.00 | 0.09 | 0.07 | 90 | 994.7 |
| 20260901165704 | 67 | 93 | 1.0 | 1.0 | 0.00 | 0.09 | 0.07 | 92 | 994.6 |
| 20260901165203 | 67 | 93 | 1.0 | 1.0 | 0.00 | 0.09 | 0.07 | 91 | 994.6 |
| 20260901163704 | 67 | 96 | 1.0 | 2.0 | 0.00 | 0.09 | 0.07 | 90 | 994.8 |
| 20260901163204 | 67 | 99 | 2.0 | 25.0 | 0.00 | 0.09 | 0.07 | 91 | 994.8 |
| 20260901162704 | 66 | 252 | 10.0 | 32.0 | 0.00 | 0.09 | 0.07 | 92 | 994.8 |
| 20260901161703 | 66 | 241 | 3.0 | 5.0 | 0.00 | 0.09 | 0.07 | 93 | 994.7 |
| 20260901161204 | 66 | 227 | 2.0 | 3.0 | 0.00 | 0.09 | 0.07 | 93 | 994.6 |
| 20260901160704 | 65 | 237 | 3.0 | 3.0 | 0.00 | 0.09 | 0.07 | 95 | 994.5 |
| 20260901160204 | 65 | 228 | 3.0 | 3.0 | 0.00 | 0.09 | 0.07 | 95 | 994.7 |
| 20260901155704 | 66 | 237 | 3.0 | 5.0 | 0.00 | 0.09 | 0.07 | 94 | 994.7 |
| 20260901155204 | 66 | 221 | 3.0 | 3.0 | 0.00 | 0.09 | 0.07 | 96 | 994.7 |
| 20260901154704 | 65 | 241 | 3.0 | 3.0 | 0.00 | 0.09 | 0.07 | 97 | 994.7 |
| 20260901153703 | 65 | 232 | 3.0 | 3.0 | 0.00 | 0.09 | 0.07 | 98 | 994.6 |
| 20260901153204 | 64 | 243 | 3.0 | 3.0 | 0.00 | 0.09 | 0.07 | 98 | 994.6 |
| 20260901152704 | 64 | 234 | 3.0 | 3.0 | 0.00 | 0.09 | 0.07 | 98 | 994.7 |
| 20260901152204 | 64 | 242 | 3.0 | 3.0 | 0.00 | 0.09 | 0.07 | 98 | 994.8 |
| 20260901151704 | 64 | 230 | 3.0 | 3.0 | 0.00 | 0.09 | 0.07 | 99 | 994.8 |
| 20260901151204 | 64 | 243 | 3.0 | 3.0 | 0.00 | 0.09 | 0.07 | 99 | 994.8 |
| 20260901150704 | 64 | 229 | 3.0 | 5.0 | 0.00 | 0.09 | 0.07 | 99 | 994.9 |
| 20260901150204 | 64 | 235 | 3.0 | 3.0 | 0.00 | 0.09 | 0.07 | 99 | 994.9 |
| 20260901145704 | 64 | 239 | 5.0 | 24.0 | 0.00 | 0.09 | 0.07 | 99 | 994.9 |
| 20260901145203 | 64 | 241 | 7.0 | 32.0 | 0.00 | 0.09 | 0.07 | 98 | 994.8 |
| 20260901144704 | 64 | 255 | 16.0 | 36.0 | 0.00 | 0.09 | 0.07 | 99 | 994.8 |
| 20260901144203 | 65 | 245 | 16.0 | 36.0 | 0.00 | 0.09 | 0.07 | 99 | 994.8 |
| 20260901143705 | 65 | 265 | 16.0 | 33.0 | 0.00 | 0.09 | 0.07 | 99 | 994.8 |
| 20260901143204 | 65 | 311 | 15.0 | 36.0 | 0.00 | 0.09 | 0.07 | 99 | 994.7 |
| 20260901142704 | 65 | 262 | 9.0 | 35.0 | 0.00 | 0.09 | 0.07 | 99 | 994.6 |
| 20260901142204 | 64 | 234 | 7.0 | 35.0 | 0.00 | 0.09 | 0.07 | 99 | 994.5 |
| 20260901141203 | 65 | 231 | 3.0 | 5.0 | 0.00 | 0.09 | 0.07 | 98 | 994.4 |
| 20260901140204 | 64 | 235 | 22.0 | 10.0 | 0.00 | 0.09 | 0.07 | 99 | 994.2 |
| 20260901135204 | 63 | 264 | 18.0 | 35.0 | 0.00 | 0.09 | 0.07 | 99 | 994.2 |
| 20260901134704 | 63 | 237 | 8.0 | 24.0 | 0.00 | 0.09 | 0.07 | 99 | 994.2 |
| 20260901134204 | 63 | 243 | 3.0 | 5.0 | 0.00 | 0.09 | 0.07 | 99 | 994.2 |
| 20260901133704 | 62 | 241 | 3.0 | 5.0 | 0.01 | 0.09 | 0.07 | 99 | 994.3 |
| 20260901133204 | 62 | 233 | 3.0 | 5.0 | 0.00 | 0.09 | 0.07 | 99 | 994.5 |
| 20260901132704 | 62 | 237 | 3.0 | 24.0 | 0.00 | 0.09 | 0.07 | 99 | 994.6 |
| 20260901132203 | 62 | 245 | 3.0 | 24.0 | 0.00 | 0.09 | 0.07 | 99 | 994.6 |
| 20260901131704 | 62 | 258 | 2.0 | 25.0 | 0.01 | 0.09 | 0.07 | 99 | 994.6 |
| 20260901131203 | 62 | 229 | 3.0 | 5.0 | 0.02 | 0.09 | 0.07 | 99 | 994.7 |
| 20260901130704 | 62 | 238 | 6.0 | 33.0 | 0.02 | 0.09 | 0.07 | 99 | 995.0 |
| 20260901130203 | 62 | 241 | 5.0 | 25.0 | 0.02 | 0.09 | 0.07 | 99 | 995.1 |
| 20260901125704 | 62 | 234 | 5.0 | 26.0 | 0.03 | 0.09 | 0.07 | 99 | 995.2 |
| 20260901125204 | 61 | 237 | 5.0 | 29.0 | 0.03 | 0.09 | 0.07 | 99 | 995.1 |
| 20260901124704 | 61 | 236 | 3.0 | 5.0 | 0.03 | 0.09 | 0.07 | 99 | 995.0 |
| 20260901124203 | 61 | 227 | 3.0 | 5.0 | 0.03 | 0.09 | 0.07 | 99 | 995.0 |
| 20260901123203 | 61 | 231 | 2.0 | 3.0 | 0.03 | 0.08 | 0.07 | 99 | 994.9 |
| 20260901122704 | 61 | 236 | 3.0 | 3.0 | 0.03 | 0.08 | 0.07 | 99 | 995.0 |
| 20260901122204 | 61 | 250 | 3.0 | 5.0 | 0.02 | 0.08 | 0.07 | 99 | 995.1 |
| 20260901121704 | 61 | 237 | 3.0 | 5.0 | 0.02 | 0.07 | 0.06 | 99 | 995.0 |
| 20260901121204 | 61 | 235 | 3.0 | 5.0 | 0.02 | 0.07 | 0.05 | 99 | 995.1 |
| 20260901120704 | 61 | 237 | 3.0 | 5.0 | 0.01 | 0.06 | 0.05 | 99 | 995.3 |
| 20260901120203 | 61 | 238 | 3.0 | 3.0 | 0.02 | 0.06 | 0.05 | 99 | 995.2 |
| 20260901115704 | 62 | 241 | 3.0 | 3.0 | 0.02 | 0.06 | 0.05 | 99 | 995.2 |
| 20260901114703 | 62 | 255 | 3.0 | 6.0 | 0.01 | 0.05 | 0.04 | 99 | 995.2 |
| 20260901114204 | 62 | 258 | 4.0 | 5.0 | 0.01 | 0.05 | 0.04 | 99 | 995.3 |
| 20260901113704 | 62 | 310 | 3.0 | 5.0 | 0.01 | 0.05 | 0.04 | 99 | 995.2 |
| 20260901113203 | 62 | 330 | 1.0 | 5.0 | 0.01 | 0.05 | 0.04 | 99 | 995.2 |
| 20260901112704 | 62 | 250 | 1.0 | 3.0 | 0.01 | 0.05 | 0.04 | 99 | 995.2 |
| 20260901112204 | 62 | 196 | 1.0 | 2.0 | 0.03 | 0.05 | 0.05 | 99 | 995.1 |
| 20260901111704 | 62 | 225 | 2.0 | 3.0 | 0.03 | 0.04 | 0.04 | 99 | 995.0 |
| 20260901111204 | 62 | 222 | 2.0 | 3.0 | 0.03 | 0.04 | 0.04 | 99 | 995.0 |
| 20260901110703 | 62 | 226 | 1.0 | 2.0 | 0.04 | 0.04 | 0.04 | 99 | 994.9 |
| 20260901110204 | 62 | 224 | 1.0 | 1.0 | 0.03 | 0.03 | 0.03 | 99 | 994.8 |
| 20260901105704 | 62 | 224 | 1.0 | 2.0 | 0.03 | 0.03 | 0.03 | 99 | 994.7 |
| 20260901105204 | 62 | 224 | 1.0 | 1.0 | 0.03 | 0.03 | 0.03 | 99 | 994.6 |
| 20260901104704 | 62 | 224 | 1.0 | 1.0 | 0.03 | 0.03 | 0.03 | 99 | 994.6 |
| 20260901104204 | 62 | 204 | 1.0 | 1.0 | 0.03 | 0.03 | 0.03 | 98 | 994.5 |
| 20260901103704 | 62 | 140 | 1.0 | 2.0 | 0.03 | 0.03 | 0.03 | 98 | 994.5 |
| 20260901102204 | 62 | 93 | 1.0 | 3.0 | 0.02 | 0.02 | 0.02 | 98 | 994.7 |
| 20260901101704 | 62 | 325 | 1.0 | 3.0 | 0.02 | 0.02 | 0.02 | 98 | 994.7 |
| 20260901101204 | 62 | 240 | 0.0 | 1.0 | 0.01 | 0.01 | 0.01 | 97 | 994.6 |
| 20260901100704 | 63 | 195 | 1.0 | 3.0 | 0.00 | 0.00 | 0.00 | 97 | 994.6 |
| 20260901100204 | 63 | 214 | 2.0 | 10.0 | 0.00 | 0.00 | 0.00 | 96 | 994.6 |
| 20260901095703 | 63 | 226 | 2.0 | 7.0 | 0.00 | 0.00 | 0.00 | 94 | 994.7 |
| 20260901095203 | 64 | 261 | 2.0 | 7.0 | 0.00 | 0.00 | 0.00 | 93 | 994.6 |
| 20260901094704 | 64 | 176 | 1.0 | 2.0 | 0.00 | 0.00 | 0.00 | 92 | 994.5 |
| 20260901094204 | 64 | 214 | 2.0 | 2.0 | 0.00 | 0.00 | 0.00 | 91 | 994.5 |
| 20260901093703 | 64 | 152 | 2.0 | 7.0 | 0.00 | 0.00 | 0.00 | 91 | 994.5 |
| 20260901093204 | 64 | 146 | 2.0 | 1.0 | 0.00 | 0.00 | 0.00 | 91 | 994.6 |
| 20260901092704 | 64 | 278 | 2.0 | 2.0 | 0.00 | 0.00 | 0.00 | 91 | 994.6 |
| 20260901092204 | 64 | 187 | 2.0 | 3.0 | 0.00 | 0.00 | 0.00 | 91 | 994.5 |
| 20260901091204 | 64 | 262 | 2.0 | 2.0 | 0.00 | 0.00 | 0.00 | 91 | 994.3 |
| 20260901090704 | 64 | 204 | 2.0 | 2.0 | 0.00 | 0.00 | 0.00 | 91 | 994.1 |
| 20260901090204 | 64 | 192 | 2.0 | 2.0 | 0.00 | 0.00 | 0.00 | 90 | 994.1 |
| 20260901085204 | 64 | 242 | 1.0 | 2.0 | 0.00 | 0.00 | 0.00 | 90 | 994.3 |
| 20260901084203 | 64 | 174 | 1.0 | 6.0 | 0.00 | 0.00 | 0.00 | 90 | 994.3 |
| 20260901083703 | 64 | 204 | 1.0 | 7.0 | 0.00 | 0.00 | 0.00 | 89 | 994.3 |
| 20260901083204 | 64 | 148 | 1.0 | 5.0 | 0.00 | 0.00 | 0.00 | 90 | 994.4 |
| 20260901082704 | 64 | 274 | 1.0 | 2.0 | 0.00 | 0.00 | 0.00 | 90 | 994.5 |
| 20260901082204 | 64 | 60 | 1.0 | 2.0 | 0.00 | 0.00 | 0.00 | 90 | 994.6 |
| 20260901081204 | 64 | 313 | 2.0 | 2.0 | 0.00 | 0.00 | 0.00 | 90 | 994.6 |
| 20260901080704 | 64 | 313 | 2.0 | 2.0 | 0.00 | 0.00 | 0.00 | 90 | 994.6 |
| 20260901080203 | 64 | 318 | 1.0 | 3.0 | 0.00 | 0.00 | 0.00 | 90 | 994.7 |
| 20260901075704 | 64 | 311 | 2.0 | 2.0 | 0.00 | 0.00 | 0.00 | 89 | 994.6 |
| 20260901075204 | 64 | 310 | 2.0 | 3.0 | 0.00 | 0.00 | 0.00 | 90 | 994.7 |
| 20260901074707 | 64 | 287 | 1.0 | 2.0 | 0.00 | 0.00 | 0.00 | 89 | 994.7 |
| 20260901074203 | 64 | 309 | 2.0 | 2.0 | 0.00 | 0.00 | 0.00 | 89 | 994.7 |
| 20260901073704 | 64 | 312 | 1.0 | 1.0 | 0.00 | 0.00 | 0.00 | 89 | 994.7 |
| 20260901072704 | 64 | 307 | 1.0 | 2.0 | 0.00 | 0.00 | 0.00 | 90 | 994.6 |
| 20260901071704 | 64 | 296 | 2.0 | 3.0 | 0.00 | 0.00 | 0.00 | 90 | 994.6 |
| 20260901071204 | 64 | 309 | 1.0 | 3.0 | 0.00 | 0.00 | 0.00 | 90 | 994.6 |
| 20260901070704 | 64 | 313 | 1.0 | 2.0 | 0.00 | 0.00 | 0.00 | 90 | 994.5 |
| 20260901070204 | 64 | 308 | 1.0 | 2.0 | 0.00 | 0.00 | 0.00 | 90 | 994.6 |
| 20260901065703 | 64 | 288 | 2.0 | 3.0 | 0.00 | 0.00 | 0.00 | 90 | 994.7 |
| 20260901065204 | 64 | 310 | 2.0 | 2.0 | 0.00 | 0.00 | 0.00 | 89 | 994.6 |
| 20260901064704 | 64 | 308 | 2.0 | 2.0 | 0.00 | 0.00 | 0.00 | 89 | 994.8 |
| 20260901064203 | 64 | 311 | 1.0 | 2.0 | 0.00 | 0.00 | 0.00 | 90 | 994.8 |
| 20260901063706 | 64 | 313 | 1.0 | 2.0 | 0.00 | 0.00 | 0.00 | 90 | 994.9 |
| 20260901062703 | 64 | 254 | 1.0 | 2.0 | 0.00 | 0.00 | 0.00 | 90 | 994.9 |
| 20260901062204 | 64 | 313 | 1.0 | 3.0 | 0.00 | 0.00 | 0.00 | 90 | 995.0 |
| 20260901061704 | 64 | 313 | 2.0 | 2.0 | 0.00 | 0.00 | 0.00 | 89 | 995.1 |
| 20260901061205 | 64 | 311 | 1.0 | 2.0 | 0.00 | 0.00 | 0.00 | 90 | 995.1 |
| 20260901060704 | 64 | 312 | 1.0 | 2.0 | 0.00 | 0.00 | 0.00 | 90 | 995.0 |
| 20260901060203 | 64 | 282 | 1.0 | 7.0 | 0.00 | 0.00 | 0.00 | 90 | 995.0 |
| 20260901055703 | 64 | 312 | 1.0 | 2.0 | 0.00 | 0.00 | 0.00 | 90 | 995.3 |
| 20260901055204 | 64 | 312 | 1.0 | 2.0 | 0.00 | 0.00 | 0.00 | 90 | 995.3 |
| 20260901054704 | 64 | 312 | 1.0 | 3.0 | 0.00 | 0.00 | 0.00 | 90 | 995.2 |
| 20260901054203 | 64 | 297 | 2.0 | 3.0 | 0.00 | 0.00 | 0.00 | 90 | 995.2 |
| 20260901053704 | 64 | 300 | 2.0 | 3.0 | 0.00 | 0.00 | 0.00 | 90 | 995.3 |
| 20260901052704 | 64 | 309 | 1.0 | 2.0 | 0.00 | 0.00 | 0.00 | 91 | 995.6 |
| 20260901052203 | 64 | 310 | 2.0 | 2.0 | 0.00 | 0.00 | 0.00 | 91 | 995.6 |
| 20260901051704 | 64 | 312 | 2.0 | 2.0 | 0.00 | 0.00 | 0.00 | 91 | 995.7 |
| 20260901051204 | 64 | 313 | 2.0 | 2.0 | 0.00 | 0.00 | 0.00 | 90 | 995.6 |
| 20260901050704 | 64 | 311 | 2.0 | 3.0 | 0.00 | 0.00 | 0.00 | 90 | 995.6 |
| 20260901050204 | 64 | 309 | 2.0 | 3.0 | 0.00 | 0.00 | 0.00 | 90 | 995.6 |